Year,Month,Day,Hour,Minute,Value (Times are PST for temperature in C)
2010,12,05,00,00,1.20
2010,12,05,00,01,1.20
2010,12,05,00,02,1.30
2010,12,05,00,03,1.30
2010,12,05,00,04,1.30
2010,12,05,00,05,1.30
2010,12,05,00,06,1.30
2010,12,05,00,07,1.30
2010,12,05,00,08,1.30
2010,12,05,00,09,1.30
2010,12,05,00,10,1.30
2010,12,05,00,11,1.30
2010,12,05,00,12,1.30
2010,12,05,00,13,1.30
2010,12,05,00,14,1.30
2010,12,05,00,15,1.30
2010,12,05,00,16,1.30
2010,12,05,00,17,1.30
2010,12,05,00,18,1.30
2010,12,05,00,19,1.40
2010,12,05,00,20,1.40
2010,12,05,00,21,1.40
2010,12,05,00,22,1.50
2010,12,05,00,23,1.50
2010,12,05,00,24,1.50
2010,12,05,00,25,1.50
2010,12,05,00,26,1.60
2010,12,05,00,27,1.60
2010,12,05,00,28,1.60
2010,12,05,00,29,1.60
2010,12,05,00,30,1.70
2010,12,05,00,31,1.70
2010,12,05,00,32,1.70
2010,12,05,00,33,1.60
2010,12,05,00,34,1.60
2010,12,05,00,35,1.60
2010,12,05,00,36,1.60
2010,12,05,00,37,1.60
2010,12,05,00,38,1.50
2010,12,05,00,39,1.50
2010,12,05,00,40,1.50
2010,12,05,00,41,1.50
2010,12,05,00,42,1.50
2010,12,05,00,43,1.50
2010,12,05,00,44,1.50
2010,12,05,00,45,1.50
2010,12,05,00,46,1.50
2010,12,05,00,47,1.50
2010,12,05,00,48,1.50
2010,12,05,00,49,1.50
2010,12,05,00,50,1.50
2010,12,05,00,51,1.50
2010,12,05,00,52,1.50
2010,12,05,00,53,1.50
2010,12,05,00,54,1.50
2010,12,05,00,55,1.50
2010,12,05,00,56,1.50
2010,12,05,00,57,1.60
2010,12,05,00,58,1.60
2010,12,05,00,59,1.60
2010,12,05,01,00,1.60
2010,12,05,01,01,1.60
2010,12,05,01,02,1.50
2010,12,05,01,03,1.50
2010,12,05,01,04,1.50
2010,12,05,01,05,1.40
2010,12,05,01,06,1.40
2010,12,05,01,07,1.30
2010,12,05,01,08,1.30
2010,12,05,01,09,1.30
2010,12,05,01,10,1.30
2010,12,05,01,11,1.20
2010,12,05,01,12,1.20
2010,12,05,01,13,1.20
2010,12,05,01,14,1.10
2010,12,05,01,15,1.10
2010,12,05,01,16,1.10
2010,12,05,01,17,1.10
2010,12,05,01,18,1.10
2010,12,05,01,19,1.10
2010,12,05,01,20,1.10
2010,12,05,01,21,1.10
2010,12,05,01,22,1.10
2010,12,05,01,23,1.10
2010,12,05,01,24,1.10
2010,12,05,01,25,1.10
2010,12,05,01,26,1.20
2010,12,05,01,27,1.20
2010,12,05,01,28,1.20
2010,12,05,01,29,1.30
2010,12,05,01,30,1.30
2010,12,05,01,31,1.30
2010,12,05,01,32,1.30
2010,12,05,01,33,1.30
2010,12,05,01,34,1.40
2010,12,05,01,35,1.40
2010,12,05,01,36,1.50
2010,12,05,01,37,1.50
2010,12,05,01,38,1.60
2010,12,05,01,39,1.60
2010,12,05,01,40,1.60
2010,12,05,01,41,1.60
2010,12,05,01,42,1.60
2010,12,05,01,43,1.70
2010,12,05,01,44,1.70
2010,12,05,01,45,1.60
2010,12,05,01,46,1.60
2010,12,05,01,47,1.60
2010,12,05,01,48,1.60
2010,12,05,01,49,1.60
2010,12,05,01,50,1.50
2010,12,05,01,51,1.50
2010,12,05,01,52,1.50
2010,12,05,01,53,1.60
2010,12,05,01,54,1.60
2010,12,05,01,55,1.60
2010,12,05,01,56,1.60
2010,12,05,01,57,1.70
2010,12,05,01,58,1.70
2010,12,05,01,59,1.70
2010,12,05,02,00,1.70
2010,12,05,02,01,1.70
2010,12,05,02,02,1.70
2010,12,05,02,03,1.70
2010,12,05,02,04,1.70
2010,12,05,02,05,1.70
2010,12,05,02,06,1.70
2010,12,05,02,07,1.70
2010,12,05,02,08,1.70
2010,12,05,02,09,1.70
2010,12,05,02,10,1.70
2010,12,05,02,11,1.70
2010,12,05,02,12,1.70
2010,12,05,02,13,1.70
2010,12,05,02,14,1.70
2010,12,05,02,15,1.70
2010,12,05,02,16,1.70
2010,12,05,02,17,1.70
2010,12,05,02,18,1.70
2010,12,05,02,19,1.70
2010,12,05,02,20,1.80
2010,12,05,02,21,1.80
2010,12,05,02,22,1.80
2010,12,05,02,23,1.80
2010,12,05,02,24,1.80
2010,12,05,02,25,1.80
2010,12,05,02,26,1.80
2010,12,05,02,27,1.80
2010,12,05,02,28,1.90
2010,12,05,02,29,1.90
2010,12,05,02,30,1.90
2010,12,05,02,31,1.90
2010,12,05,02,32,1.90
2010,12,05,02,33,1.90
2010,12,05,02,34,1.90
2010,12,05,02,35,1.90
2010,12,05,02,36,1.90
2010,12,05,02,37,1.90
2010,12,05,02,38,1.90
2010,12,05,02,39,1.90
2010,12,05,02,40,1.90
2010,12,05,02,41,1.90
2010,12,05,02,42,1.90
2010,12,05,02,43,1.90
2010,12,05,02,44,1.90
2010,12,05,02,45,1.90
2010,12,05,02,46,1.80
2010,12,05,02,47,1.80
2010,12,05,02,48,1.80
2010,12,05,02,49,1.80
2010,12,05,02,50,1.80
2010,12,05,02,51,1.80
2010,12,05,02,52,1.80
2010,12,05,02,53,1.80
2010,12,05,02,54,1.70
2010,12,05,02,55,1.70
2010,12,05,02,56,1.70
2010,12,05,02,57,1.70
2010,12,05,02,58,1.70
2010,12,05,02,59,1.70
2010,12,05,03,00,1.70
2010,12,05,03,01,1.70
2010,12,05,03,02,1.60
2010,12,05,03,03,1.60
2010,12,05,03,04,1.60
2010,12,05,03,05,1.60
2010,12,05,03,06,1.60
2010,12,05,03,07,1.60
2010,12,05,03,08,1.60
2010,12,05,03,09,1.60
2010,12,05,03,10,1.60
2010,12,05,03,11,1.60
2010,12,05,03,12,1.60
2010,12,05,03,13,1.60
2010,12,05,03,14,1.60
2010,12,05,03,15,1.60
2010,12,05,03,16,1.60
2010,12,05,03,17,1.50
2010,12,05,03,18,1.50
2010,12,05,03,19,1.50
2010,12,05,03,20,1.40
2010,12,05,03,21,1.40
2010,12,05,03,22,1.40
2010,12,05,03,23,1.40
2010,12,05,03,24,1.40
2010,12,05,03,25,1.40
2010,12,05,03,26,1.40
2010,12,05,03,27,1.50
2010,12,05,03,28,1.50
2010,12,05,03,29,1.60
2010,12,05,03,30,1.60
2010,12,05,03,31,1.60
2010,12,05,03,32,1.60
2010,12,05,03,33,1.70
2010,12,05,03,34,1.70
2010,12,05,03,35,1.70
2010,12,05,03,36,1.70
2010,12,05,03,37,1.70
2010,12,05,03,38,1.70
2010,12,05,03,39,1.70
2010,12,05,03,40,1.70
2010,12,05,03,41,1.70
2010,12,05,03,42,1.70
2010,12,05,03,43,1.70
2010,12,05,03,44,1.70
2010,12,05,03,45,1.70
2010,12,05,03,46,1.70
2010,12,05,03,47,1.70
2010,12,05,03,48,1.70
2010,12,05,03,49,1.80
2010,12,05,03,50,1.80
2010,12,05,03,51,1.80
2010,12,05,03,52,1.90
2010,12,05,03,53,1.90
2010,12,05,03,54,1.90
2010,12,05,03,55,2.00
2010,12,05,03,56,2.00
2010,12,05,03,57,2.10
2010,12,05,03,58,2.10
2010,12,05,03,59,2.10
2010,12,05,04,00,2.10
2010,12,05,04,01,2.10
2010,12,05,04,02,2.20
2010,12,05,04,03,2.20
2010,12,05,04,04,2.20
2010,12,05,04,05,2.20
2010,12,05,04,06,2.20
2010,12,05,04,07,2.30
2010,12,05,04,08,2.30
2010,12,05,04,09,2.30
2010,12,05,04,10,2.30
2010,12,05,04,11,2.30
2010,12,05,04,12,2.30
2010,12,05,04,13,2.30
2010,12,05,04,14,2.30
2010,12,05,04,15,2.30
2010,12,05,04,16,2.30
2010,12,05,04,17,2.30
2010,12,05,04,18,2.30
2010,12,05,04,19,2.30
2010,12,05,04,20,2.40
2010,12,05,04,21,2.40
2010,12,05,04,22,2.40
2010,12,05,04,23,2.40
2010,12,05,04,24,2.30
2010,12,05,04,25,2.30
2010,12,05,04,26,2.30
2010,12,05,04,27,2.30
2010,12,05,04,28,2.30
2010,12,05,04,29,2.20
2010,12,05,04,30,2.20
2010,12,05,04,31,2.10
2010,12,05,04,32,2.10
2010,12,05,04,33,2.00
2010,12,05,04,34,2.00
2010,12,05,04,35,1.90
2010,12,05,04,36,1.90
2010,12,05,04,37,1.80
2010,12,05,04,38,1.80
2010,12,05,04,39,1.80
2010,12,05,04,40,1.70
2010,12,05,04,41,1.70
2010,12,05,04,42,1.70
2010,12,05,04,43,1.70
2010,12,05,04,44,1.70
2010,12,05,04,45,1.70
2010,12,05,04,46,1.70
2010,12,05,04,47,1.80
2010,12,05,04,48,1.80
2010,12,05,04,49,1.80
2010,12,05,04,50,1.80
2010,12,05,04,51,1.80
2010,12,05,04,52,1.90
2010,12,05,04,53,2.00
2010,12,05,04,54,2.00
2010,12,05,04,55,2.10
2010,12,05,04,56,2.10
2010,12,05,04,57,2.10
2010,12,05,04,58,2.20
2010,12,05,04,59,2.20
2010,12,05,05,00,2.20
2010,12,05,05,01,2.20
2010,12,05,05,02,2.20
2010,12,05,05,03,2.20
2010,12,05,05,04,2.20
2010,12,05,05,05,2.20
2010,12,05,05,06,2.20
2010,12,05,05,07,2.20
2010,12,05,05,08,2.20
2010,12,05,05,09,2.10
2010,12,05,05,10,2.10
2010,12,05,05,11,2.10
2010,12,05,05,12,2.10
2010,12,05,05,13,2.10
2010,12,05,05,14,2.10
2010,12,05,05,15,2.10
2010,12,05,05,16,2.10
2010,12,05,05,17,2.10
2010,12,05,05,18,2.10
2010,12,05,05,19,2.20
2010,12,05,05,20,2.20
2010,12,05,05,21,2.20
2010,12,05,05,22,2.20
2010,12,05,05,23,2.20
2010,12,05,05,24,2.20
2010,12,05,05,25,2.30
2010,12,05,05,26,2.30
2010,12,05,05,27,2.30
2010,12,05,05,28,2.30
2010,12,05,05,29,2.30
2010,12,05,05,30,2.30
2010,12,05,05,31,2.40
2010,12,05,05,32,2.40
2010,12,05,05,33,2.40
2010,12,05,05,34,2.40
2010,12,05,05,35,2.40
2010,12,05,05,36,2.40
2010,12,05,05,37,2.40
2010,12,05,05,38,2.40
2010,12,05,05,39,2.40
2010,12,05,05,40,2.40
2010,12,05,05,41,2.40
2010,12,05,05,42,2.40
2010,12,05,05,43,2.40
2010,12,05,05,44,2.40
2010,12,05,05,45,2.40
2010,12,05,05,46,2.40
2010,12,05,05,47,2.40
2010,12,05,05,48,2.40
2010,12,05,05,49,2.40
2010,12,05,05,50,2.40
2010,12,05,05,51,2.40
2010,12,05,05,52,2.50
2010,12,05,05,53,2.50
2010,12,05,05,54,2.50
2010,12,05,05,55,2.50
2010,12,05,05,56,2.50
2010,12,05,05,57,2.50
2010,12,05,05,58,2.50
2010,12,05,05,59,2.50
2010,12,05,06,00,2.50
2010,12,05,06,01,2.50
2010,12,05,06,02,2.60
2010,12,05,06,03,2.60
2010,12,05,06,04,2.60
2010,12,05,06,05,2.60
2010,12,05,06,06,2.60
2010,12,05,06,07,2.60
2010,12,05,06,08,2.60
2010,12,05,06,09,2.60
2010,12,05,06,10,2.50
2010,12,05,06,11,2.50
2010,12,05,06,12,2.40
2010,12,05,06,13,2.40
2010,12,05,06,14,2.30
2010,12,05,06,15,2.30
2010,12,05,06,16,2.30
2010,12,05,06,17,2.20
2010,12,05,06,18,2.20
2010,12,05,06,19,2.20
2010,12,05,06,20,2.10
2010,12,05,06,21,2.10
2010,12,05,06,22,2.10
2010,12,05,06,23,2.10
2010,12,05,06,24,2.10
2010,12,05,06,25,2.00
2010,12,05,06,26,2.00
2010,12,05,06,27,1.90
2010,12,05,06,28,1.90
2010,12,05,06,29,1.80
2010,12,05,06,30,1.70
2010,12,05,06,31,1.70
2010,12,05,06,32,1.70
2010,12,05,06,33,1.70
2010,12,05,06,34,1.60
2010,12,05,06,35,1.60
2010,12,05,06,36,1.60
2010,12,05,06,37,1.60
2010,12,05,06,38,1.60
2010,12,05,06,39,1.70
2010,12,05,06,40,1.70
2010,12,05,06,41,1.70
2010,12,05,06,42,1.70
2010,12,05,06,43,1.70
2010,12,05,06,44,1.70
2010,12,05,06,45,1.70
2010,12,05,06,46,1.70
2010,12,05,06,47,1.70
2010,12,05,06,48,1.80
2010,12,05,06,49,1.80
2010,12,05,06,50,1.80
2010,12,05,06,51,1.80
2010,12,05,06,52,1.80
2010,12,05,06,53,1.80
2010,12,05,06,54,1.80
2010,12,05,06,55,1.80
2010,12,05,06,56,1.80
2010,12,05,06,57,1.80
2010,12,05,06,58,1.80
2010,12,05,06,59,1.80
2010,12,05,07,00,1.80
2010,12,05,07,01,1.80
2010,12,05,07,02,1.80
2010,12,05,07,03,1.80
2010,12,05,07,04,1.80
2010,12,05,07,05,1.80
2010,12,05,07,06,1.80
2010,12,05,07,07,1.80
2010,12,05,07,08,1.80
2010,12,05,07,09,1.80
2010,12,05,07,10,1.80
2010,12,05,07,11,1.90
2010,12,05,07,12,1.90
2010,12,05,07,13,1.90
2010,12,05,07,14,2.00
2010,12,05,07,15,2.00
2010,12,05,07,16,2.00
2010,12,05,07,17,2.10
2010,12,05,07,18,2.10
2010,12,05,07,19,2.00
2010,12,05,07,20,2.00
2010,12,05,07,21,2.00
2010,12,05,07,22,2.00
2010,12,05,07,23,2.00
2010,12,05,07,24,2.00
2010,12,05,07,25,2.00
2010,12,05,07,26,2.00
2010,12,05,07,27,2.00
2010,12,05,07,28,2.00
2010,12,05,07,29,2.00
2010,12,05,07,30,2.00
2010,12,05,07,31,2.00
2010,12,05,07,32,2.00
2010,12,05,07,33,2.00
2010,12,05,07,34,2.00
2010,12,05,07,35,2.00
2010,12,05,07,36,2.00
2010,12,05,07,37,2.00
2010,12,05,07,38,2.10
2010,12,05,07,39,2.10
2010,12,05,07,40,2.10
2010,12,05,07,41,2.10
2010,12,05,07,42,2.10
2010,12,05,07,43,2.10
2010,12,05,07,44,2.10
2010,12,05,07,45,2.10
2010,12,05,07,46,2.10
2010,12,05,07,47,2.10
2010,12,05,07,48,2.10
2010,12,05,07,49,2.00
2010,12,05,07,50,2.00
2010,12,05,07,51,2.00
2010,12,05,07,52,2.00
2010,12,05,07,53,2.00
2010,12,05,07,54,2.00
2010,12,05,07,55,2.00
2010,12,05,07,56,2.00
2010,12,05,07,57,2.00
2010,12,05,07,58,2.10
2010,12,05,07,59,2.10
2010,12,05,08,00,2.10
2010,12,05,08,01,2.10
2010,12,05,08,02,2.10
2010,12,05,08,03,2.10
2010,12,05,08,04,2.20
2010,12,05,08,05,2.20
2010,12,05,08,06,2.20
2010,12,05,08,07,2.20
2010,12,05,08,08,2.20
2010,12,05,08,09,2.20
2010,12,05,08,10,2.20
2010,12,05,08,11,2.20
2010,12,05,08,12,2.20
2010,12,05,08,13,2.20
2010,12,05,08,14,2.20
2010,12,05,08,15,2.20
2010,12,05,08,16,2.20
2010,12,05,08,17,2.20
2010,12,05,08,18,2.20
2010,12,05,08,19,2.30
2010,12,05,08,20,2.30
2010,12,05,08,21,2.30
2010,12,05,08,22,2.30
2010,12,05,08,23,2.30
2010,12,05,08,24,2.30
2010,12,05,08,25,2.40
2010,12,05,08,26,2.40
2010,12,05,08,27,2.40
2010,12,05,08,28,2.40
2010,12,05,08,29,2.50
2010,12,05,08,30,2.50
2010,12,05,08,31,2.60
2010,12,05,08,32,2.60
2010,12,05,08,33,2.60
2010,12,05,08,34,2.60
2010,12,05,08,35,2.60
2010,12,05,08,36,2.60
2010,12,05,08,37,2.60
2010,12,05,08,38,2.60
2010,12,05,08,39,2.60
2010,12,05,08,40,2.70
2010,12,05,08,41,2.70
2010,12,05,08,42,2.70
2010,12,05,08,43,2.70
2010,12,05,08,44,2.70
2010,12,05,08,45,2.80
2010,12,05,08,46,2.80
2010,12,05,08,47,2.80
2010,12,05,08,48,2.90
2010,12,05,08,49,2.90
2010,12,05,08,50,2.90
2010,12,05,08,51,2.90
2010,12,05,08,52,3.00
2010,12,05,08,53,3.00
2010,12,05,08,54,3.10
2010,12,05,08,55,3.10
2010,12,05,08,56,3.10
2010,12,05,08,57,3.20
2010,12,05,08,58,3.20
2010,12,05,08,59,3.30
2010,12,05,09,00,3.30
2010,12,05,09,01,3.40
2010,12,05,09,02,3.40
2010,12,05,09,03,3.50
2010,12,05,09,04,3.50
2010,12,05,09,05,3.50
2010,12,05,09,06,3.60
2010,12,05,09,07,3.60
2010,12,05,09,08,3.60
2010,12,05,09,09,3.70
2010,12,05,09,10,3.70
2010,12,05,09,11,3.70
2010,12,05,09,12,3.70
2010,12,05,09,13,3.80
2010,12,05,09,14,3.80
2010,12,05,09,15,3.80
2010,12,05,09,16,3.80
2010,12,05,09,17,3.80
2010,12,05,09,18,3.90
2010,12,05,09,19,3.90
2010,12,05,09,20,3.90
2010,12,05,09,21,3.80
2010,12,05,09,22,3.80
2010,12,05,09,23,3.80
2010,12,05,09,24,3.80
2010,12,05,09,25,3.80
2010,12,05,09,26,3.90
2010,12,05,09,27,3.90
2010,12,05,09,28,3.90
2010,12,05,09,29,4.00
2010,12,05,09,30,4.10
2010,12,05,09,31,4.10
2010,12,05,09,32,4.20
2010,12,05,09,33,4.20
2010,12,05,09,34,4.20
2010,12,05,09,35,4.10
2010,12,05,09,36,4.10
2010,12,05,09,37,4.00
2010,12,05,09,38,4.00
2010,12,05,09,39,3.90
2010,12,05,09,40,3.90
2010,12,05,09,41,3.90
2010,12,05,09,42,4.00
2010,12,05,09,43,4.00
2010,12,05,09,44,4.00
2010,12,05,09,45,4.00
2010,12,05,09,46,4.10
2010,12,05,09,47,4.10
2010,12,05,09,48,4.00
2010,12,05,09,49,4.00
2010,12,05,09,50,4.00
2010,12,05,09,51,3.90
2010,12,05,09,52,3.90
2010,12,05,09,53,3.90
2010,12,05,09,54,3.90
2010,12,05,09,55,3.90
2010,12,05,09,56,3.90
2010,12,05,09,57,3.90
2010,12,05,09,58,4.00
2010,12,05,09,59,4.10
2010,12,05,10,00,4.20
2010,12,05,10,01,4.20
2010,12,05,10,02,4.10
2010,12,05,10,03,4.10
2010,12,05,10,04,4.00
2010,12,05,10,05,3.90
2010,12,05,10,06,3.90
2010,12,05,10,07,3.80
2010,12,05,10,08,3.80
2010,12,05,10,09,3.80
2010,12,05,10,10,3.80
2010,12,05,10,11,3.70
2010,12,05,10,12,3.70
2010,12,05,10,13,3.60
2010,12,05,10,14,3.50
2010,12,05,10,15,3.50
2010,12,05,10,16,3.40
2010,12,05,10,17,3.40
2010,12,05,10,18,3.30
2010,12,05,10,19,3.30
2010,12,05,10,20,3.30
2010,12,05,10,21,3.30
2010,12,05,10,22,3.30
2010,12,05,10,23,3.30
2010,12,05,10,24,3.30
2010,12,05,10,25,3.40
2010,12,05,10,26,3.40
2010,12,05,10,27,3.40
2010,12,05,10,28,3.50
2010,12,05,10,29,3.50
2010,12,05,10,30,3.50
2010,12,05,10,31,3.50
2010,12,05,10,32,3.50
2010,12,05,10,33,3.60
2010,12,05,10,34,3.60
2010,12,05,10,35,3.60
2010,12,05,10,36,3.70
2010,12,05,10,37,3.70
2010,12,05,10,38,3.80
2010,12,05,10,39,3.80
2010,12,05,10,40,3.90
2010,12,05,10,41,3.90
2010,12,05,10,42,3.90
2010,12,05,10,43,4.00
2010,12,05,10,44,4.00
2010,12,05,10,45,4.00
2010,12,05,10,46,4.00
2010,12,05,10,47,4.10
2010,12,05,10,48,4.10
2010,12,05,10,49,4.10
2010,12,05,10,50,4.10
2010,12,05,10,51,4.10
2010,12,05,10,52,4.10
2010,12,05,10,53,4.20
2010,12,05,10,54,4.20
2010,12,05,10,55,4.20
2010,12,05,10,56,4.20
2010,12,05,10,57,4.30
2010,12,05,10,58,4.30
2010,12,05,10,59,4.30
2010,12,05,11,00,4.30
2010,12,05,11,01,4.30
2010,12,05,11,02,4.30
2010,12,05,11,03,4.30
2010,12,05,11,04,4.30
2010,12,05,11,05,4.40
2010,12,05,11,06,4.40
2010,12,05,11,07,4.40
2010,12,05,11,08,4.40
2010,12,05,11,09,4.40
2010,12,05,11,10,4.40
2010,12,05,11,11,4.30
2010,12,05,11,12,4.30
2010,12,05,11,13,4.30
2010,12,05,11,14,4.20
2010,12,05,11,15,4.20
2010,12,05,11,16,4.10
2010,12,05,11,17,4.10
2010,12,05,11,18,4.10
2010,12,05,11,19,4.00
2010,12,05,11,20,4.00
2010,12,05,11,21,3.90
2010,12,05,11,22,3.90
2010,12,05,11,23,3.90
2010,12,05,11,24,3.90
2010,12,05,11,25,3.90
2010,12,05,11,26,3.90
2010,12,05,11,27,3.80
2010,12,05,11,28,3.80
2010,12,05,11,29,3.80
2010,12,05,11,30,3.80
2010,12,05,11,31,3.70
2010,12,05,11,32,3.80
2010,12,05,11,33,3.80
2010,12,05,11,34,3.70
2010,12,05,11,35,3.70
2010,12,05,11,36,3.70
2010,12,05,11,37,3.70
2010,12,05,11,38,3.70
2010,12,05,11,39,3.70
2010,12,05,11,40,3.70
2010,12,05,11,41,3.70
2010,12,05,11,42,3.80
2010,12,05,11,43,3.80
2010,12,05,11,44,3.80
2010,12,05,11,45,3.80
2010,12,05,11,46,3.80
2010,12,05,11,47,3.80
2010,12,05,11,48,3.80
2010,12,05,11,49,3.80
2010,12,05,11,50,3.80
2010,12,05,11,51,3.70
2010,12,05,11,52,3.70
2010,12,05,11,53,3.60
2010,12,05,11,54,3.60
2010,12,05,11,55,3.60
2010,12,05,11,56,3.60
2010,12,05,11,57,3.60
2010,12,05,11,58,3.60
2010,12,05,11,59,3.60
2010,12,05,12,00,3.60
2010,12,05,12,01,3.60
2010,12,05,12,02,3.60
2010,12,05,12,03,3.60
2010,12,05,12,04,3.60
2010,12,05,12,05,3.70
2010,12,05,12,06,3.70
2010,12,05,12,07,3.70
2010,12,05,12,08,3.80
2010,12,05,12,09,3.80
2010,12,05,12,10,3.80
2010,12,05,12,11,3.90
2010,12,05,12,12,3.90
2010,12,05,12,13,4.00
2010,12,05,12,14,4.00
2010,12,05,12,15,4.10
2010,12,05,12,16,4.10
2010,12,05,12,17,4.10
2010,12,05,12,18,4.10
2010,12,05,12,19,4.10
2010,12,05,12,20,4.10
2010,12,05,12,21,4.10
2010,12,05,12,22,4.10
2010,12,05,12,23,4.10
2010,12,05,12,24,4.10
2010,12,05,12,25,4.10
2010,12,05,12,26,4.10
2010,12,05,12,27,4.10
2010,12,05,12,28,4.10
2010,12,05,12,29,4.10
2010,12,05,12,30,4.00
2010,12,05,12,31,4.00
2010,12,05,12,32,4.00
2010,12,05,12,33,3.90
2010,12,05,12,34,3.90
2010,12,05,12,35,3.90
2010,12,05,12,36,3.90
2010,12,05,12,37,3.90
2010,12,05,12,38,3.90
2010,12,05,12,39,3.90
2010,12,05,12,40,3.90
2010,12,05,12,41,3.90
2010,12,05,12,42,3.80
2010,12,05,12,43,3.80
2010,12,05,12,44,3.80
2010,12,05,12,45,3.80
2010,12,05,12,46,3.80
2010,12,05,12,47,3.80
2010,12,05,12,48,3.80
2010,12,05,12,49,3.80
2010,12,05,12,50,3.80
2010,12,05,12,51,3.80
2010,12,05,12,52,3.80
2010,12,05,12,53,3.80
2010,12,05,12,54,3.80
2010,12,05,12,55,3.70
2010,12,05,12,56,3.70
2010,12,05,12,57,3.70
2010,12,05,12,58,3.70
2010,12,05,12,59,3.70
2010,12,05,13,00,3.70
2010,12,05,13,01,3.70
2010,12,05,13,02,3.70
2010,12,05,13,03,3.70
2010,12,05,13,04,3.70
2010,12,05,13,05,3.70
2010,12,05,13,06,3.70
2010,12,05,13,07,3.70
2010,12,05,13,08,3.70
2010,12,05,13,09,3.70
2010,12,05,13,10,3.70
2010,12,05,13,11,3.80
2010,12,05,13,12,3.80
2010,12,05,13,13,3.80
2010,12,05,13,14,3.90
2010,12,05,13,15,3.90
2010,12,05,13,16,3.90
2010,12,05,13,17,3.90
2010,12,05,13,18,3.90
2010,12,05,13,19,3.90
2010,12,05,13,20,3.90
2010,12,05,13,21,3.90
2010,12,05,13,22,3.90
2010,12,05,13,23,3.90
2010,12,05,13,24,3.90
2010,12,05,13,25,3.80
2010,12,05,13,26,3.80
2010,12,05,13,27,3.80
2010,12,05,13,28,3.70
2010,12,05,13,29,3.70
2010,12,05,13,30,3.70
2010,12,05,13,31,3.70
2010,12,05,13,32,3.70
2010,12,05,13,33,3.70
2010,12,05,13,34,3.60
2010,12,05,13,35,3.60
2010,12,05,13,36,3.60
2010,12,05,13,37,3.70
2010,12,05,13,38,3.70
2010,12,05,13,39,3.70
2010,12,05,13,40,3.70
2010,12,05,13,41,3.70
2010,12,05,13,42,3.70
2010,12,05,13,43,3.70
2010,12,05,13,44,3.70
2010,12,05,13,45,3.70
2010,12,05,13,46,3.80
2010,12,05,13,47,3.80
2010,12,05,13,48,3.80
2010,12,05,13,49,3.80
2010,12,05,13,50,3.80
2010,12,05,13,51,3.80
2010,12,05,13,52,3.80
2010,12,05,13,53,3.80
2010,12,05,13,54,3.80
2010,12,05,13,55,3.80
2010,12,05,13,56,3.80
2010,12,05,13,57,3.80
2010,12,05,13,58,3.80
2010,12,05,13,59,3.90
2010,12,05,14,00,3.90
2010,12,05,14,01,3.90
2010,12,05,14,02,3.90
2010,12,05,14,03,3.90
2010,12,05,14,04,3.90
2010,12,05,14,05,4.00
2010,12,05,14,06,4.00
2010,12,05,14,07,4.00
2010,12,05,14,08,3.90
2010,12,05,14,09,3.90
2010,12,05,14,10,3.90
2010,12,05,14,11,3.90
2010,12,05,14,12,3.90
2010,12,05,14,13,3.90
2010,12,05,14,14,3.90
2010,12,05,14,15,3.90
2010,12,05,14,16,3.90
2010,12,05,14,17,4.00
2010,12,05,14,18,4.00
2010,12,05,14,19,4.00
2010,12,05,14,20,4.10
2010,12,05,14,21,4.10
2010,12,05,14,22,4.10
2010,12,05,14,23,4.10
2010,12,05,14,24,4.00
2010,12,05,14,25,4.00
2010,12,05,14,26,4.00
2010,12,05,14,27,4.00
2010,12,05,14,28,4.00
2010,12,05,14,29,4.00
2010,12,05,14,30,4.00
2010,12,05,14,31,4.00
2010,12,05,14,32,4.00
2010,12,05,14,33,4.10
2010,12,05,14,34,4.10
2010,12,05,14,35,4.10
2010,12,05,14,36,4.20
2010,12,05,14,37,4.20
2010,12,05,14,38,4.20
2010,12,05,14,39,4.20
2010,12,05,14,40,4.20
2010,12,05,14,41,4.20
2010,12,05,14,42,4.20
2010,12,05,14,43,4.20
2010,12,05,14,44,4.10
2010,12,05,14,45,4.10
2010,12,05,14,46,4.10
2010,12,05,14,47,4.10
2010,12,05,14,48,4.00
2010,12,05,14,49,4.00
2010,12,05,14,50,4.00
2010,12,05,14,51,3.90
2010,12,05,14,52,3.90
2010,12,05,14,53,3.90
2010,12,05,14,54,3.90
2010,12,05,14,55,3.90
2010,12,05,14,56,3.90
2010,12,05,14,57,3.80
2010,12,05,14,58,3.80
2010,12,05,14,59,3.80
2010,12,05,15,00,3.80
2010,12,05,15,01,3.80
2010,12,05,15,02,3.80
2010,12,05,15,03,3.80
2010,12,05,15,04,3.80
2010,12,05,15,05,3.80
2010,12,05,15,06,3.70
2010,12,05,15,07,3.70
2010,12,05,15,08,3.70
2010,12,05,15,09,3.70
2010,12,05,15,10,3.70
2010,12,05,15,11,3.70
2010,12,05,15,12,3.70
2010,12,05,15,13,3.70
2010,12,05,15,14,3.70
2010,12,05,15,15,3.70
2010,12,05,15,16,3.70
2010,12,05,15,17,3.70
2010,12,05,15,18,3.80
2010,12,05,15,19,3.80
2010,12,05,15,20,3.80
2010,12,05,15,21,3.80
2010,12,05,15,22,3.80
2010,12,05,15,23,3.80
2010,12,05,15,24,3.80
2010,12,05,15,25,3.80
2010,12,05,15,26,3.80
2010,12,05,15,27,3.80
2010,12,05,15,28,3.80
2010,12,05,15,29,3.80
2010,12,05,15,30,3.80
2010,12,05,15,31,3.80
2010,12,05,15,32,3.80
2010,12,05,15,33,3.80
2010,12,05,15,34,3.80
2010,12,05,15,35,3.80
2010,12,05,15,36,3.80
2010,12,05,15,37,3.80
2010,12,05,15,38,3.70
2010,12,05,15,39,3.70
2010,12,05,15,40,3.70
2010,12,05,15,41,3.70
2010,12,05,15,42,3.70
2010,12,05,15,43,3.70
2010,12,05,15,44,3.60
2010,12,05,15,45,3.60
2010,12,05,15,46,3.60
2010,12,05,15,47,3.60
2010,12,05,15,48,3.50
2010,12,05,15,49,3.50
2010,12,05,15,50,3.50
2010,12,05,15,51,3.40
2010,12,05,15,52,3.40
2010,12,05,15,53,3.40
2010,12,05,15,54,3.40
2010,12,05,15,55,3.40
2010,12,05,15,56,3.40
2010,12,05,15,57,3.30
2010,12,05,15,58,3.30
2010,12,05,15,59,3.30
2010,12,05,16,00,3.30
2010,12,05,16,01,3.30
2010,12,05,16,02,3.30
2010,12,05,16,03,3.30
2010,12,05,16,04,3.30
2010,12,05,16,05,3.30
2010,12,05,16,06,3.30
2010,12,05,16,07,3.30
2010,12,05,16,08,3.30
2010,12,05,16,09,3.30
2010,12,05,16,10,3.20
2010,12,05,16,11,3.20
2010,12,05,16,12,3.20
2010,12,05,16,13,3.20
2010,12,05,16,14,3.20
2010,12,05,16,15,3.20
2010,12,05,16,16,3.20
2010,12,05,16,17,3.20
2010,12,05,16,18,3.20
2010,12,05,16,19,3.10
2010,12,05,16,20,3.10
2010,12,05,16,21,3.10
2010,12,05,16,22,3.00
2010,12,05,16,23,3.00
2010,12,05,16,24,2.90
2010,12,05,16,25,2.90
2010,12,05,16,26,2.90
2010,12,05,16,27,2.80
2010,12,05,16,28,2.80
2010,12,05,16,29,2.80
2010,12,05,16,30,2.80
2010,12,05,16,31,2.80
2010,12,05,16,32,2.80
2010,12,05,16,33,2.80
2010,12,05,16,34,2.80
2010,12,05,16,35,2.80
2010,12,05,16,36,2.80
2010,12,05,16,37,2.80
2010,12,05,16,38,2.80
2010,12,05,16,39,2.80
2010,12,05,16,40,2.80
2010,12,05,16,41,2.80
2010,12,05,16,42,2.80
2010,12,05,16,43,2.80
2010,12,05,16,44,2.80
2010,12,05,16,45,2.80
2010,12,05,16,46,2.80
2010,12,05,16,47,2.80
2010,12,05,16,48,2.70
2010,12,05,16,49,2.70
2010,12,05,16,50,2.70
2010,12,05,16,51,2.70
2010,12,05,16,52,2.70
2010,12,05,16,53,2.60
2010,12,05,16,54,2.60
2010,12,05,16,55,2.60
2010,12,05,16,56,2.60
2010,12,05,16,57,2.60
2010,12,05,16,58,2.60
2010,12,05,16,59,2.60
2010,12,05,17,00,2.60
2010,12,05,17,01,2.70
2010,12,05,17,02,2.70
2010,12,05,17,03,2.70
2010,12,05,17,04,2.70
2010,12,05,17,05,2.70
2010,12,05,17,06,2.70
2010,12,05,17,07,2.70
2010,12,05,17,08,2.70
2010,12,05,17,09,2.70
2010,12,05,17,10,2.70
2010,12,05,17,11,2.70
2010,12,05,17,12,2.70
2010,12,05,17,13,2.70
2010,12,05,17,14,2.70
2010,12,05,17,15,2.70
2010,12,05,17,16,2.70
2010,12,05,17,17,2.80
2010,12,05,17,18,2.80
2010,12,05,17,19,2.80
2010,12,05,17,20,2.80
2010,12,05,17,21,2.80
2010,12,05,17,22,2.80
2010,12,05,17,23,2.80
2010,12,05,17,24,2.90
2010,12,05,17,25,2.90
2010,12,05,17,26,2.90
2010,12,05,17,27,2.90
2010,12,05,17,28,2.90
2010,12,05,17,29,2.90
2010,12,05,17,30,2.90
2010,12,05,17,31,3.00
2010,12,05,17,32,3.00
2010,12,05,17,33,3.00
2010,12,05,17,34,2.90
2010,12,05,17,35,2.90
2010,12,05,17,36,2.90
2010,12,05,17,37,2.90
2010,12,05,17,38,2.80
2010,12,05,17,39,2.70
2010,12,05,17,40,2.60
2010,12,05,17,41,2.50
2010,12,05,17,42,2.40
2010,12,05,17,43,2.30
2010,12,05,17,44,2.20
2010,12,05,17,45,2.20
2010,12,05,17,46,2.20
2010,12,05,17,47,2.20
2010,12,05,17,48,2.20
2010,12,05,17,49,2.20
2010,12,05,17,50,2.20
2010,12,05,17,51,2.30
2010,12,05,17,52,2.30
2010,12,05,17,53,2.30
2010,12,05,17,54,2.30
2010,12,05,17,55,2.30
2010,12,05,17,56,2.30
2010,12,05,17,57,2.30
2010,12,05,17,58,2.40
2010,12,05,17,59,2.40
2010,12,05,18,00,2.40
2010,12,05,18,01,2.40
2010,12,05,18,02,2.40
2010,12,05,18,03,2.50
2010,12,05,18,04,2.50
2010,12,05,18,05,2.50
2010,12,05,18,06,2.60